DELTA 1 DEB, 14463

Orbit data source: Space-Track

DELTA 1 DEB, 14463 is space debris in SSO originally from a launch on Sun, 05 Mar 1978 UTC launched from the Air Force Western Test Range (AFWTR). Debris objects in space refer to the collection of defunct objects orbiting the Earth. Examples of debris include non-operational satellites, rocket bodies, and fragments generated from explosions, collisions, or faulty payload assembly.

Loading next visibility...
Identifier
14463, 1978-026GD
Orbit
SSO
Country
Flag of USUS
Related business
Manufacturer
Unknown
Mission
Spacecraft
Bus & Motor
Unknown
Mass
Unknown
Launch date (UTC)
1978-03-05 (48 years ago)
Launch vehicle
Unknown
Launch site
Air Force Western Test Range (AFWTR)
Object type
Payload
Rocket body
Debris
Shape & HBR
Unknown shape, 0.1 m
Radar Cross Section
Medium (>0.1 m² and <1 m²)

Expand to show TLE details & history
Last TLE update: 2 days ago

TLE from 2 days ago
0 DELTA 1 DEB
1 14463U 78026GD  26171.39143839  .00001111  00000-0  52151-3 0  9999
2 14463  98.8739  66.2067 0120098  11.1000  42.6581 14.18402285298419
Epoch: 2026-06-20T09:23Z
TLE epoch observation values (Epoch: 2026-06-20T09:23:40.276Z)
Latitude
53.84532°
Longitude
4.41106°
Altitude
776.366 km
Speed
7.504 km/s
True Right ascension
03h 35m 44s
True Declination
53° 40' 54"
Sunlit
Object was in daylight at epoch
Visualization orbit readout
Latitude
Unknown
Longitude
Unknown
Altitude
Unknown
Speed
Unknown
Apparent Right ascension
Unknown
Apparent Declination
Unknown
Sunlit
N/A
Visualization observer readout
Local Sidereal Time
07:03:47
Azimuth
Unknown
Elevation
Unknown
Doppler factor
Unknown
Orbital elements
Apogee altitude
914.473 km
Perigee altitude
741.386 km
Semi-major axis
7,206.066 km
Eccentricity
0.01201
Inclination
98.8739°
RAAN
66.2067°
Arg. of periapsis
11.1°
True anomaly
43.60102°
Mean anomaly
42.6581°
Eccentric anomaly
43.12852°
Mean motion
3.5481 °/min
Orbital period
101.46 mins
BSTAR
0.00052151
Loading maneuver chart data...
Computing Atmospheric mass density...

Documentation

Showing up to 5 results
|